TimePDT,TemperatureF,Dew PointF,Humidity,Sea Level PressureIn,VisibilityMPH,Wind Direction,Wind SpeedMPH,Gust SpeedMPH,PrecipitationIn,Events,Conditions,WindDirDegrees,DateUTC
12:15 AM,62.6,57.2,82,30.08,10.0,WNW,3.5,-,N/A,,Overcast,300,2013-09-09 07:15:00
12:35 AM,62.6,57.2,82,30.08,10.0,NW,3.5,-,N/A,,Overcast,310,2013-09-09 07:35:00
12:55 AM,62.6,57.2,82,30.08,10.0,NNW,5.8,-,N/A,,Overcast,330,2013-09-09 07:55:00
1:15 AM,62.6,57.2,82,30.08,10.0,Calm,Calm,-,N/A,,Overcast,0,2013-09-09 08:15:00
1:35 AM,62.6,57.2,82,30.08,10.0,North,4.6,-,N/A,,Overcast,350,2013-09-09 08:35:00
1:55 AM,62.6,57.2,82,30.08,10.0,NNW,5.8,-,N/A,,Overcast,330,2013-09-09 08:55:00
2:15 AM,62.6,57.2,82,30.08,10.0,NW,3.5,-,N/A,,Overcast,320,2013-09-09 09:15:00
2:35 AM,62.6,57.2,82,30.08,10.0,NNW,4.6,-,N/A,,Overcast,330,2013-09-09 09:35:00
2:55 AM,62.6,57.2,82,30.08,10.0,NW,4.6,-,N/A,,Overcast,320,2013-09-09 09:55:00
3:15 AM,62.6,57.2,82,30.07,10.0,Calm,Calm,-,N/A,,Overcast,0,2013-09-09 10:15:00
3:35 AM,62.6,55.4,77,30.07,10.0,Calm,Calm,-,N/A,,Overcast,0,2013-09-09 10:35:00
3:55 AM,62.6,55.4,77,30.07,10.0,NW,3.5,-,N/A,,Overcast,310,2013-09-09 10:55:00
4:15 AM,60.8,55.4,82,30.07,7.0,WNW,3.5,-,N/A,,Overcast,300,2013-09-09 11:15:00
4:35 AM,60.8,55.4,82,30.07,10.0,Calm,Calm,-,N/A,,Overcast,0,2013-09-09 11:35:00
4:55 AM,60.8,57.2,88,30.07,6.0,NNW,4.6,-,N/A,,Overcast,330,2013-09-09 11:55:00
5:15 AM,60.8,57.2,88,30.08,6.0,NNW,5.8,-,N/A,,Overcast,330,2013-09-09 12:15:00
5:35 AM,60.8,55.4,82,30.08,10.0,NW,4.6,-,N/A,,Overcast,320,2013-09-09 12:35:00
5:55 AM,60.8,55.4,82,30.08,10.0,NNW,4.6,-,N/A,,Overcast,330,2013-09-09 12:55:00
6:15 AM,60.8,55.4,82,30.08,5.0,NNW,6.9,-,N/A,,Overcast,330,2013-09-09 13:15:00
6:35 AM,60.8,55.4,82,30.08,10.0,NW,4.6,-,N/A,,Overcast,310,2013-09-09 13:35:00
6:55 AM,60.8,55.4,82,30.08,10.0,NW,3.5,-,N/A,,Overcast,310,2013-09-09 13:55:00
7:15 AM,60.8,55.4,82,30.08,10.0,WNW,3.5,-,N/A,,Overcast,300,2013-09-09 14:15:00
7:35 AM,60.8,55.4,82,30.08,10.0,NW,5.8,-,N/A,,Overcast,320,2013-09-09 14:35:00
7:55 AM,60.8,55.4,82,30.09,10.0,NW,5.8,-,N/A,,Overcast,320,2013-09-09 14:55:00
8:15 AM,60.8,55.4,82,30.09,10.0,NW,5.8,-,N/A,,Overcast,310,2013-09-09 15:15:00
8:35 AM,60.8,55.4,82,30.09,10.0,NW,4.6,-,N/A,,Overcast,320,2013-09-09 15:35:00
8:55 AM,60.8,55.4,82,30.09,10.0,NW,4.6,-,N/A,,Overcast,310,2013-09-09 15:55:00
9:15 AM,60.8,55.4,82,30.09,10.0,NNW,8.1,-,N/A,,Overcast,330,2013-09-09 16:15:00
9:35 AM,60.8,55.4,82,30.09,10.0,NNW,5.8,-,N/A,,Overcast,330,2013-09-09 16:35:00
9:55 AM,60.8,55.4,82,30.09,10.0,North,8.1,-,N/A,,Overcast,360,2013-09-09 16:55:00
10:15 AM,62.6,55.4,77,30.09,10.0,North,-9999.0,-,N/A,,Overcast,0,2013-09-09 17:15:00
10:35 AM,62.6,55.4,77,30.10,10.0,North,-9999.0,-,N/A,,Overcast,0,2013-09-09 17:35:00
10:55 AM,62.6,55.4,77,30.09,10.0,North,-9999.0,-,N/A,,Overcast,0,2013-09-09 17:55:00
11:15 AM,64.4,55.4,73,30.09,10.0,North,-9999.0,-,N/A,,Overcast,0,2013-09-09 18:15:00
11:35 AM,64.4,55.4,73,30.09,10.0,North,-9999.0,-,N/A,,Overcast,0,2013-09-09 18:35:00
11:55 AM,66.2,57.2,73,30.08,10.0,North,-9999.0,-,N/A,,Overcast,0,2013-09-09 18:55:00
12:15 PM,66.2,57.2,73,30.08,10.0,North,-9999.0,-,N/A,,Mostly Cloudy,0,2013-09-09 19:15:00
12:35 PM,68.0,57.2,68,30.07,10.0,North,-9999.0,-,N/A,,Clear,0,2013-09-09 19:35:00
12:55 PM,69.8,59.0,68,30.06,10.0,North,-9999.0,-,N/A,,Clear,0,2013-09-09 19:55:00
1:15 PM,71.6,59.0,64,30.06,10.0,North,-9999.0,-,N/A,,Clear,0,2013-09-09 20:15:00
1:35 PM,73.4,60.8,65,30.05,10.0,North,-9999.0,-,N/A,,Clear,0,2013-09-09 20:35:00
1:55 PM,75.2,60.8,61,30.04,10.0,North,-9999.0,-,N/A,,Clear,0,2013-09-09 20:55:00
2:15 PM,75.2,60.8,61,30.03,10.0,North,-9999.0,-,N/A,,Clear,0,2013-09-09 21:15:00
2:35 PM,77.0,60.8,57,30.02,10.0,North,-9999.0,-,N/A,,Clear,0,2013-09-09 21:35:00
2:55 PM,78.8,60.8,54,30.01,10.0,North,-9999.0,-,N/A,,Clear,0,2013-09-09 21:55:00
3:15 PM,78.8,60.8,54,30.00,10.0,North,-9999.0,-,N/A,,Clear,0,2013-09-09 22:15:00
3:35 PM,80.6,62.6,54,30.00,10.0,North,-9999.0,-,N/A,,Clear,0,2013-09-09 22:35:00
3:55 PM,80.6,62.6,54,29.99,10.0,North,-9999.0,-,N/A,,Clear,0,2013-09-09 22:55:00
4:15 PM,80.6,62.6,54,29.98,10.0,North,-9999.0,-,N/A,,Clear,0,2013-09-09 23:15:00
4:35 PM,80.6,62.6,54,29.99,10.0,North,-9999.0,-,N/A,,Clear,0,2013-09-09 23:35:00
4:55 PM,80.6,62.6,54,29.98,10.0,North,-9999.0,-,N/A,,Clear,0,2013-09-09 23:55:00
5:15 PM,80.6,62.6,54,29.98,10.0,North,-9999.0,-,N/A,,Clear,0,2013-09-10 00:15:00
5:35 PM,80.6,62.6,54,29.98,10.0,North,-9999.0,-,N/A,,Clear,0,2013-09-10 00:35:00
5:55 PM,80.6,62.6,54,29.97,10.0,North,-9999.0,-,N/A,,Clear,0,2013-09-10 00:55:00
6:15 PM,80.6,60.8,51,29.97,10.0,North,-9999.0,-,N/A,,Clear,0,2013-09-10 01:15:00
6:35 PM,78.8,62.6,57,29.98,10.0,North,-9999.0,-,N/A,,Clear,0,2013-09-10 01:35:00
6:55 PM,75.2,62.6,65,29.98,10.0,North,-9999.0,-,N/A,,Clear,0,2013-09-10 01:55:00
7:15 PM,73.4,62.6,69,29.98,10.0,North,-9999.0,-,N/A,,Clear,0,2013-09-10 02:15:00
7:35 PM,73.4,62.6,69,29.98,10.0,North,-9999.0,-,N/A,,Clear,0,2013-09-10 02:35:00
7:55 PM,71.6,62.6,73,29.98,10.0,North,-9999.0,-,N/A,,Clear,0,2013-09-10 02:55:00
8:15 PM,71.6,60.8,69,29.99,10.0,North,-9999.0,-,N/A,,Clear,0,2013-09-10 03:15:00
8:35 PM,69.8,60.8,73,29.99,10.0,North,-9999.0,-,N/A,,Clear,0,2013-09-10 03:35:00
8:55 PM,68.0,60.8,78,29.99,10.0,North,-9999.0,-,N/A,,Clear,0,2013-09-10 03:55:00
9:15 PM,68.0,60.8,78,29.99,10.0,North,-9999.0,-,N/A,,Clear,0,2013-09-10 04:15:00
9:35 PM,66.2,59.0,78,29.99,10.0,North,-9999.0,-,N/A,,Clear,0,2013-09-10 04:35:00
9:55 PM,66.2,59.0,78,29.99,10.0,North,-9999.0,-,N/A,,Clear,0,2013-09-10 04:55:00
10:15 PM,64.4,59.0,83,29.99,10.0,North,-9999.0,-,N/A,,Clear,0,2013-09-10 05:15:00
10:35 PM,64.4,57.2,77,29.99,10.0,North,-9999.0,-,N/A,,Clear,0,2013-09-10 05:35:00
10:55 PM,64.4,57.2,77,29.99,10.0,North,-9999.0,-,N/A,,Clear,0,2013-09-10 05:55:00
11:15 PM,64.4,57.2,77,29.99,10.0,North,-9999.0,-,N/A,,Clear,0,2013-09-10 06:15:00
11:35 PM,64.4,57.2,77,29.99,10.0,North,-9999.0,-,N/A,,Clear,0,2013-09-10 06:35:00
11:55 PM,62.6,57.2,82,29.99,10.0,North,-9999.0,-,N/A,,Clear,0,2013-09-10 06:55:00